Location: Peach Mountain Observatory
(42.3967°N, 83.9367°W)
Time: 21:50:56
(UTC-04:00)

deb Explorer IX - Pass Details

Date: 23 January 2020
Orbit: 547 x 1100 km, 38.8° (Epoch: 06 April)

Event Time Altitude Azimuth Distance (km) Brightness Sun altitude
Rises 23:38:57 0° 246° (WSW) 3,828 - -62.8°
Reaches altitude 10° 23:41:41 10° 243° (WSW) 2,912 - -63.1°
Maximum altitude 23:48:45 58° 167° (SSE) 1,266 - -63.8°
Drops below altitude 10° 23:55:47 10° 90° (E) 2,900 - -64.5°
Sets 23:58:29 0° 87° (E) 3,812 - -64.7°
